Flag for Kazakhstan Weather past 2 weeks in Qyzylorda, Kazakhstan

Now
77 °F

Clear.


Feels Like: 78 °F
Forecast: 78 / 99 °F
Wind: 8 mph from North

Location: Kzyl-Orda

Current Time: Jul 3, 2015 at 4:35:35 AM

Latest Report: Jul 3, 2015 at 3:00 AM


Visibility: 10 mi

Pressure: 29.77 "Hg

Humidity: 32%

Dew point: 45 °F

Location of QyzylordaLocation

Historic Weather in Qyzylorda — Graph

°F

Qyzylorda temperature yesterday

Maximum temperature yesterday: 111 °F (at 2:30 PM)
Minimum temperature yesterday: 72 °F (at 7:00 AM)
Average temperature yesterday: 96 °F

Past Weeks' High & Low Weather Summary

 TemperatureHumidityPressure
High111 °F (Jul 2, 2:30 PM)69% (Jun 27, 6:30 AM)29.80 "Hg (Jun 27, 6:30 AM)
Low66 °F (Jun 25, 4:00 AM)7% (Jun 30, 1:00 PM)26.99 "Hg (Jun 22, 5:00 PM)
Average89 °F26%29.64 "Hg
* Reported Jun 18 3:00 AM — Jul 3 3:00 AM, Qyzylorda, Weather by CustomWeather, © 2015

Note: Actual official high and low records may vary slightly from our data, if they occured in-between our weather recording intervals... More about our weather records

Advertising

Qyzylorda weather history for previous 24 hours

 ConditionsComfort  
Time TempWeatherWind HumidityBarometerVisibility
3:00 AM
Fri, Jul 3
77 °FClear.8 mph32%29.77 "Hg10 mi
2:00 AM82 °FClear.10 mph26%29.77 "Hg10 mi
1:00 AM86 °FClear.13 mph22%29.74 "Hg10 mi
12:00 AM88 °FClear.15 mph22%29.74 "Hg10 mi
11:00 PM
Thu, Jul 2
91 °FClear.10 mph24%29.71 "Hg10 mi
10:00 PM95 °FSunny.13 mph25%29.68 "Hg10 mi
9:30 PM97 °FSunny.13 mph25%29.68 "Hg10 mi
9:00 PM100 °FSunny.13 mph20%29.65 "Hg10 mi
8:30 PM100 °FSunny.20 mph20%29.65 "Hg10 mi
8:00 PM106 °FSunny.20 mph13%29.65 "Hg10 mi
7:30 PM109 °FSunny.13 mph10%29.62 "Hg10 mi
7:00 PM111 °FSunny.10 mph8%29.65 "Hg10 mi
6:30 PM111 °FPassing clouds.10 mph8%29.65 "HgN/A
6:00 PM111 °FPassing clouds.3 mph9%29.68 "HgN/A
5:30 PM111 °FSunny.10 mph9%29.68 "Hg10 mi
5:00 PM111 °FPassing clouds.13 mph7%29.68 "HgN/A
4:30 PM111 °FPassing clouds.8 mph8%29.68 "HgN/A
4:00 PM111 °FPassing clouds.8 mph7%29.71 "HgN/A
3:30 PM111 °FPassing clouds.6 mph7%29.71 "HgN/A
3:00 PM109 °FSunny.6 mph7%29.74 "Hg10 mi
2:30 PM111 °FPassing clouds.8 mph7%29.74 "HgN/A
2:00 PM109 °FPassing clouds.6 mph8%29.74 "HgN/A
1:30 PM109 °FSunny.1 mph8%29.74 "Hg10 mi
1:00 PM106 °FSunny.1 mph9%29.77 "Hg10 mi
12:30 PM106 °FSunny.1 mph9%29.77 "Hg10 mi
12:00 PM106 °FPassing clouds.6 mph11%29.77 "HgN/A
11:30 AM104 °FPassing clouds.3 mph12%29.77 "HgN/A
11:00 AM102 °FPassing clouds.6 mph14%29.77 "HgN/A
10:30 AM102 °FSunny.6 mph12%29.80 "Hg10 mi
10:00 AM97 °FPassing clouds.6 mph13%29.80 "HgN/A
9:30 AM93 °FSunny.6 mph19%29.80 "Hg10 mi
9:00 AM90 °FSunny.3 mph20%29.80 "Hg10 mi
8:30 AM88 °FSunny.1 mph22%29.80 "Hg10 mi
8:00 AM81 °FSunny.1 mph28%29.80 "Hg10 mi
7:30 AM79 °FSunny.1 mph32%29.80 "Hg10 mi
7:00 AM72 °FSunny.6 mph47%29.80 "Hg10 mi
6:30 AM73 °FClear.3 mph38%29.80 "Hg10 mi
6:00 AM73 °FClear.3 mph36%29.80 "Hg10 mi
5:30 AM75 °FClear.6 mph31%29.80 "Hg10 mi
5:00 AM77 °FClear.8 mph30%29.77 "Hg10 mi
4:30 AM77 °FClear.6 mph32%29.77 "Hg10 mi
4:00 AM77 °FClear.8 mph30%29.77 "Hg10 mi
Weather by CustomWeather, © 2015

See weather overviewHow to use our weather pages